EW9826 Weather Reports


time (UTC)temp
F
wind
direction
speed
knots
gust
knots
rain 1hr
in
rain 24hr
in
rain mn
in
humidity
%
barometer
mb
20260506005506 48 0 3.5 7.8 0.00 0.00 0.00 84 1009.6
20260506005007 48 13 2.6 7.0 0.00 0.00 0.00 84 1009.6
20260506003506 48 4 2.6 7.8 0.00 0.00 0.00 83 1009.6
20260506003008 48 328 4.3 10.4 0.00 0.00 0.00 83 1009.7
20260506002508 48 352 6.1 10.4 0.00 0.00 0.00 83 1009.7
20260505235007 48 357 4.3 8.7 0.00 0.00 0.00 81 1010.0
20260505234506 48 351 3.5 7.8 0.00 0.00 0.00 81 1010.0
20260505234007 48 358 4.3 7.8 0.00 0.00 0.00 81 1010.1
20260505233506 48 356 2.6 7.8 0.00 0.00 0.00 81 1010.1
20260505232507 48 355 3.5 7.0 0.00 0.00 0.00 80 1010.1
20260505232007 48 3 4.3 8.7 0.00 0.00 0.00 80 1010.1
20260505231506 48 358 4.3 7.8 0.00 0.00 0.00 79 1010.1
20260505231007 49 3 4.3 14.8 0.00 0.00 0.00 79 1010.2
20260505230007 49 1 4.3 8.7 0.00 0.00 0.00 78 1010.2
20260505225507 49 2 4.3 10.4 0.00 0.00 0.00 78 1010.3
20260505225007 49 3 3.5 7.0 0.00 0.00 0.00 78 1010.3
20260505221507 49 9 4.3 10.4 0.00 0.00 0.00 78 1010.5
20260505221007 49 4 5.2 10.4 0.00 0.00 0.00 78 1010.5
20260505220007 49 347 5.2 7.8 0.00 0.00 0.00 78 1010.6
20260505215506 49 7 5.2 7.0 0.00 0.00 0.00 78 1010.6
20260505215007 49 3 4.3 7.8 0.00 0.00 0.00 78 1010.6
20260505214507 49 0 5.2 7.8 0.00 0.00 0.00 78 1010.6
20260505214006 49 0 3.5 7.8 0.00 0.00 0.00 78 1010.6
20260505213507 49 353 4.3 7.0 0.00 0.00 0.00 78 1010.6
20260505213006 49 355 4.3 7.8 0.00 0.00 0.00 78 1010.7
20260505212506 49 355 3.5 7.0 0.00 0.00 0.00 78 1010.7
20260505212007 49 355 2.6 6.1 0.00 0.00 0.00 78 1010.7
20260505204506 50 359 3.5 7.0 0.00 0.00 0.00 78 1010.9
20260505204006 50 3 2.6 7.8 0.00 0.00 0.00 77 1011.0
20260505203506 50 355 4.3 7.0 0.00 0.00 0.00 77 1010.9
20260505203006 50 3 2.6 6.1 0.00 0.00 0.00 77 1010.9
20260505194506 51 35 2.6 5.2 0.00 0.00 0.00 77 1010.6
20260505194006 51 359 2.6 6.1 0.00 0.00 0.00 77 1010.6
20260505193007 51 315 3.5 7.0 0.00 0.00 0.00 76 1010.6
20260505192506 51 13 4.3 7.0 0.00 0.00 0.00 76 1010.5
20260505191506 52 10 2.6 5.2 0.00 0.00 0.00 75 1010.2
20260505191006 52 9 3.5 7.8 0.00 0.00 0.00 74 1010.2
20260505190006 52 3 4.3 10.4 0.00 0.00 0.00 74 1010.1
20260505185506 53 352 4.3 8.7 0.00 0.00 0.00 74 1010.1
20260505183006 54 19 5.2 12.2 0.00 0.00 0.00 72 1010.0
20260505182506 54 351 5.2 10.4 0.00 0.00 0.00 72 1010.0
20260505173006 56 3 4.3 8.7 0.00 0.00 0.00 68 1009.9
20260505172505 56 19 5.2 10.4 0.00 0.00 0.00 67 1009.9
20260505172006 56 7 3.5 8.7 0.00 0.00 0.00 67 1010.0
20260505171506 56 343 4.3 7.8 0.00 0.00 0.00 67 1010.0
20260505171007 56 357 4.3 11.3 0.00 0.00 0.00 67 1010.0
20260505165505 57 7 7.8 13.0 0.00 0.00 0.00 65 1010.1
20260505165006 57 358 5.2 8.7 0.00 0.00 0.00 65 1010.1
20260505164506 58 351 4.3 10.4 0.00 0.00 0.00 65 1010.1
20260505162005 58 27 6.1 11.3 0.00 0.00 0.00 65 1010.1
20260505161506 58 26 4.3 10.4 0.00 0.00 0.00 65 1010.1
20260505161005 58 61 5.2 10.4 0.00 0.00 0.00 65 1010.1
20260505153006 58 15 4.3 8.7 0.00 0.00 0.00 62 1010.1
20260505152505 58 76 4.3 12.2 0.00 0.00 0.00 63 1010.1
20260505151506 58 67 5.2 11.3 0.00 0.00 0.00 63 1010.1
20260505124505 58 74 5.2 12.2 0.00 0.00 0.00 60 1010.6
20260505124005 59 59 6.1 13.9 0.00 0.00 0.00 61 1010.7
20260505123505 59 56 5.2 10.4 0.00 0.00 0.00 61 1010.7
20260505123005 59 65 4.3 8.7 0.00 0.00 0.00 62 1010.7
20260505122504 58 49 4.3 12.2 0.00 0.00 0.00 62 1010.8
20260505122006 58 60 6.1 11.3 0.00 0.00 0.00 62 1010.7
20260505121505 58 74 4.3 12.2 0.00 0.00 0.00 62 1010.7
20260505121005 58 70 4.3 12.2 0.00 0.00 0.00 62 1010.6
20260505115005 58 27 6.1 12.2 0.00 0.00 0.00 63 1010.8
20260505114505 58 58 6.1 12.2 0.00 0.00 0.00 62 1010.9
20260505114005 58 357 5.2 10.4 0.00 0.00 0.00 63 1011.0
20260505113504 58 25 5.2 11.3 0.00 0.00 0.00 63 1011.1
20260505113005 58 25 4.3 8.7 0.00 0.00 0.00 64 1011.1
20260505112504 58 39 4.3 10.4 0.00 0.00 0.00 65 1011.1
20260505112005 57 64 4.3 11.3 0.00 0.00 0.00 64 1011.1
20260505111505 57 71 6.1 12.2 0.00 0.00 0.00 62 1011.1
20260505111004 57 51 5.2 10.4 0.00 0.00 0.00 64 1011.1
20260505095005 56 342 6.1 10.4 0.00 0.00 0.00 67 1011.7
20260505094504 56 44 2.6 8.7 0.00 0.00 0.00 68 1011.7
20260505094005 56 39 4.3 12.2 0.00 0.00 0.00 67 1011.7
20260505093504 56 31 4.3 7.8 0.00 0.00 0.00 68 1011.7
20260505093004 55 29 6.1 11.3 0.00 0.00 0.00 68 1011.7
20260505092504 56 23 5.2 11.3 0.00 0.00 0.00 67 1011.7
20260505092004 56 52 4.3 8.7 0.00 0.00 0.00 69 1011.8
20260505091504 55 13 5.2 11.3 0.00 0.00 0.00 68 1011.8
20260505091004 56 3 2.6 10.4 0.00 0.00 0.00 69 1011.7
20260505090004 55 47 4.3 11.3 0.00 0.00 0.00 71 1011.7
20260505085504 55 56 4.3 8.7 0.00 0.00 0.00 73 1011.7
20260505084009 54 58 4.3 10.4 0.00 0.00 0.00 73 1011.7
20260505083509 54 81 4.3 11.3 0.00 0.00 0.00 74 1011.8
20260505080008 52 27 5.2 10.4 0.00 0.00 0.00 79 1011.6
20260505074508 52 357 5.2 10.4 0.00 0.00 0.00 79 1011.7
20260505074008 52 57 3.5 7.0 0.00 0.00 0.00 79 1011.8
20260505071508 51 28 4.3 8.7 0.00 0.00 0.00 82 1012.0
20260505071008 51 356 4.3 11.3 0.00 0.00 0.00 83 1012.1
20260505064508 51 3 2.6 7.0 0.00 0.00 0.00 84 1012.2
20260505064008 51 15 3.5 7.8 0.00 0.00 0.00 84 1012.2
20260505062507 51 355 3.5 7.0 0.00 0.00 0.00 85 1012.3
20260505062008 51 20 4.3 7.0 0.00 0.00 0.00 85 1012.2
20260505061508 50 342 4.3 10.4 0.00 0.00 0.00 85 1012.2
20260505060008 50 347 4.3 8.7 0.00 0.00 0.00 85 1012.4
20260505055509 50 353 3.5 7.8 0.00 0.00 0.00 85 1012.3
20260505055008 50 0 2.6 7.8 0.00 0.00 0.00 85 1012.3
20260505052008 50 4 2.6 6.1 0.00 0.00 0.00 86 1012.2
20260505051508 50 6 4.3 7.8 0.00 0.00 0.00 86 1012.1
20260505035507 50 26 3.5 6.1 0.00 0.01 0.00 86 1012.1
20260505035008 50 29 2.6 7.0 0.00 0.01 0.00 86 1012.1
20260505034508 50 20 2.6 8.7 0.00 0.01 0.00 86 1012.1
20260505034007 50 8 4.3 6.1 0.00 0.01 0.00 85 1012.1
20260505033507 50 9 4.3 7.8 0.00 0.01 0.00 85 1012.1
20260505033008 50 33 2.6 6.1 0.00 0.01 0.00 85 1012.1
20260505032508 50 29 2.6 7.8 0.00 0.01 0.00 85 1012.2
20260505032008 50 19 2.6 7.8 0.00 0.01 0.00 85 1012.2
20260505031507 50 50 2.6 5.2 0.00 0.01 0.00 86 1012.2
20260505031008 50 93 2.6 7.8 0.00 0.01 0.00 86 1012.2
20260505030007 50 74 4.3 7.0 0.00 0.01 0.00 86 1012.2
20260505025507 50 39 1.7 6.1 0.00 0.01 0.00 86 1012.2
20260505024508 50 16 2.6 7.0 0.00 0.01 0.00 86 1012.2
20260505024008 50 17 2.6 4.3 0.00 0.01 0.00 86 1012.2
20260505022507 50 17 3.5 10.4 0.00 0.01 0.00 86 1012.3
20260505022007 51 9 3.5 7.8 0.00 0.01 0.00 86 1012.3
20260505021507 51 356 4.3 10.4 0.00 0.01 0.00 86 1012.5
20260505021008 51 0 3.5 10.4 0.00 0.01 0.00 85 1012.5
20260505015507 51 0 4.3 7.8 0.00 0.01 0.00 85 1012.6
20260505015007 51 59 2.6 8.7 0.00 0.01 0.00 85 1012.6
20260505013007 51 30 5.2 10.4 0.00 0.01 0.00 85 1012.6
20260505012507 51 0 4.3 10.4 0.00 0.01 0.00 84 1012.6
20260505011007 51 22 5.2 10.4 0.00 0.01 0.00 85 1012.7
20260505010007 51 13 5.2 10.4 0.00 0.01 0.00 85 1012.7